Regional Weather Roundup
Issued by NWS

Home | Current Version | Previous Version | Text Only | Print | Product List | Glossary On
Versions: 1 2 3 4 5 6 7 8 9 10 11 12 13 14 15 16 17 18 19 20 21 22 23 24 25 26 27 28 29 30 31 32 33 34 35 36 37 38 39 40 41 42 43 44 45 46 47 48 49 50
000
ASUS43 KDMX 270507
RWRIA

WEATHER ROUNDUP FOR IOWA
NATIONAL WEATHER SERVICE DES MOINES IA
1200 AM CDT THU AUG 27 2015

NOTE: "FAIR" INDICATES FEW OR NO CLOUDS BELOW 12,000 FEET WITH NO
SIGNIFICANT WEATHER AND/OR OBSTRUCTIONS TO VISIBILITY.

* - THESE STATIONS ARE NOT NWS STATIONS...THUS NOT UNDER NWS
QUALITY CONTROL.  THEY ALSO DO NOT REPORT WEATHER SUCH
AS PRECIPITATION OR FOG.

IAZ001>003-012>014-020>022-031>034-043>046-270600-
   NORTHWEST IOWA

CITY           SKY/WX    TMP DP  RH WIND       PRES   REMARKS
CARROLL *      CLOUDY    57  55  94 S3        30.11F
CHEROKEE *     CLEAR     59  57  94 CALM      30.09F
DENISON *      MOCLDY    63  57  82 SE7G14    30.08F
LE MARS *      CLEAR     63  61  94 SE5       30.08S
ORANGE CITY *  CLEAR     63  61  94 SE5       30.08F
SHELDON *      CLEAR     59  57  94 SE7       30.07F
SIOUX CITY     CLEAR     63  59  87 SE8       30.06F
SPENCER        CLEAR     59  53  80 S3        30.11S
STORM LAKE *   CLEAR     59  57  94 SE8       30.11F
$$

IAZ055>058-069>071-079>083-090>094-270600-
   SOUTHWEST IOWA

CITY           SKY/WX    TMP DP  RH WIND       PRES   REMARKS
ATLANTIC *     CLOUDY    61  55  82 CALM      30.11F
AUDUBON *        N/A     55  54  94 CALM      30.13F
CLARINDA *     CLEAR     63  57  82 S5        30.12F
COUNCIL BLFS *   N/A     64  61  88 SE8       30.09F
CRESTON *      CLEAR     59  54  82 SE6       30.15S
HARLAN  *      CLEAR     63  63 100 S5        30.14F
LAMONI         CLEAR     65  57  75 SE3       30.14S
RED OAK *      CLEAR     64  59  82 CALM      30.10F
SHENANDOAH *   PTCLDY    64  61  88 CALM      30.10S
$$

IAZ047>049-059>061-072>074-084-270600-
   CENTRAL IOWA

CITY           SKY/WX    TMP DP  RH WIND       PRES   REMARKS
AMES           CLEAR     53  53 100 SE3       30.12F
ANKENY *       CLEAR     55  55 100 CALM      30.13F
CHARITON *     PTCLDY    61  57  88 SE6       30.15R
DES MOINES     PTCLDY    65  53  65 SE6       30.13F
GRINNELL*      CLEAR     59  54  82 E5        30.16S
KNOXVILLE *    CLEAR     63  55  77 SE5       30.13S
MARSHALLTOWN   CLEAR     55  53  93 E8        30.13F
PELLA *        CLEAR     61  57  87 SE3       30.15F
PERRY *          N/A     57  55  94 S5        30.12F
$$

IAZ004>006-015-016-023>025-035-036-270600-
   NORTH CENTRAL IOWA

CITY           SKY/WX    TMP DP  RH WIND       PRES   REMARKS
ALGONA *       CLEAR     61  55  82 SE7       30.12S
CLARION *      CLEAR     57  54  88 SE7       30.13F
ESTHERVILLE    CLEAR     57  55  93 S6        30.10F
FORT DODGE *   CLEAR     57  52  82 SE6       30.12F
MASON CITY     CLEAR     52  50  93 S3        30.14F
FOREST CITY *  CLEAR     52  52 100 CALM      30.13S
IOWA FALLS *     N/A     55  52  88 SE3       30.15F
$$

IAZ007>011-017>019-026>030-037>042-050>054-066-270600-
   NORTHEAST IOWA

CITY           SKY/WX    TMP DP  RH WIND       PRES   REMARKS
CEDAR RAPIDS   CLEAR     56  55  97 CALM      30.14S
CHARLES CITY * CLEAR     55  55 100 E5        30.15S
CLINTON *      CLEAR     55  54  94 SE5       30.18S
DECORAH *      CLOUDY    57  52  82 CALM      30.15S
DUBUQUE        CLEAR     60  55  83 SE8       30.16S
MONTICELLO *   CLEAR     54  54 100 CALM      30.15S
OELWEIN *        N/A    N/A N/A N/A MISG        N/A
WATERLOO       CLEAR     53  51  93 CALM      30.14F
$$

IAZ064-065-067-068-078-270600-
   EAST CENTRAL IOWA

CITY           SKY/WX    TMP DP  RH WIND       PRES   REMARKS
DAVENPORT      CLEAR     59  55  87 SE7       30.15F
IOWA CITY      CLEAR     58  54  86 CALM      30.16S
MT. PLEASANT * CLEAR     59  54  82 CALM      30.15F
MUSCATINE *    CLEAR     59  55  88 CALM      30.15S
QUAD CITIES    CLEAR     61  55  81 E5        30.14F
$$

IAZ062-063-075>077-085>089-095>099-270600-
   SOUTHEAST IOWA

CITY           SKY/WX    TMP DP  RH WIND       PRES   REMARKS
BURLINGTON     CLEAR     58  56  93 CALM      30.15F
FAIRFIELD *    CLEAR     57  54  88 CALM      30.15S
FORT MADISON * CLEAR     61  57  88 CALM      30.16S
KEOKUK *       CLEAR     59  59 100 CALM      30.15S
OSKALOOSA *      N/A     57  54  88 SE5       30.15S
CENTERVILLE *  CLEAR     57  57 100 E3        30.16S
OTTUMWA        CLEAR     59  55  87 SE5       30.13F
WASHINGTON *     N/A    N/A N/A N/A MISG        N/A
$$

ABBREVIATIONS USED IN REMARKS
   TC - TEMPERATURES IN CELSIUS
  WCI - WIND CHILL INDEX
   HX - HEAT INDEX
  VSB - VISIBILITY
$$




USA.gov is the U.S. government's official web portal to all federal, state and local government web resources and services.